Location: Spruce Knob
(38.6995°N, 79.5330°W)
Time: 19:11:41
(UTC-04:00)

Transit 2A - Pass Details

Date: 18 August 2022
Orbit: 601 x 956 km, 66.7° (Epoch: 27 September)

Event Time Altitude Azimuth Distance (km) Brightness Sun altitude
Rises 21:13:22 0° 315° (NW) 2,880 10.6 -12.5°
Reaches altitude 10° 21:16:01 10° 299° (WNW) 2,000 9.7 -13.0°
Maximum altitude 21:19:22 21° 251° (WSW) 1,456 8.0 -13.6°
Drops below altitude 10° 21:22:52 10° 202° (SSW) 2,106 8.2 -14.2°
Sets 21:25:45 0° 187° (S) 3,081 8.9 -14.6°
